Vertical_Velocity
-0 1 1 -0 -0 1 2 5 1 -2 -2 -1 1 0 -3 1 1 -3 -1 -0 9 -1 0 2 1 1 -0 -1 -1 -1 -1 -1 -1 -2 -2 -2 -2 -2 -3 -2 -0 -0 -1 -0 0 0 -0 -1 -1
1 1 -1 -1 5 -7 56 19 -7 -3 -1 0 1 1 -12 -1 -1 0 -1 -3 -1 -1 -1 1 -0 0 -1 -1 -2 -2 -2 -1 -1 0 -0 -1 -2 -2 -2 -3 -1 -1 -0 -1 -1 0 -1 -2 -2
-1 -0 -1 0 1 10 -4 -8 -2 5 -0 1 -5 -5 -3 -1 -3 -2 -4 -3 -3 0 0 1 0 -0 0 -1 -0 -1 -1 1 0 0 -1 0 -1 -1 -1 -0 -2 -1 -0 -2 -1 -1 1 1 -1
-0 -2 -1 0 -2 4 -6 6 -0 3 -0 -5 4 -9 -1 -2 1 -1 0 -1 -2 -0 -1 -1 0 1 -1 -4 -4 -3 -1 -2 -1 -1 0 0 -0 0 1 0 1 -0 -0 -2 -1 -1 -2 1 -0
-2 -2 1 -2 -3 -3 -1 5 6 -2 -3 -1 8 -23 6 -2 2 -1 -1 -1 -1 -0 -2 -1 -1 -2 0 0 -0 0 -1 -1 -1 0 -0 0 1 1 0 1 1 2 1 -1 -1 -1 -0 -0 -0
-0 -1 -1 -7 15 -6 -1 6 3 -4 2 -4 -1 -17 0 0 3 2 -1 -0 -0 2 1 0 -1 -1 -1 -2 -0 -1 -2 -0 1 0 1 1 1 0 1 1 2 3 1 1 1 -2 -0 -1 -1
0 -1 -1 -11 34 2 -7 2 2 2 -7 11 -1 -6 -6 13 -3 0 2 -0 -4 -1 -1 0 -0 -1 -2 -2 0 -1 -0 0 0 0 -1 0 1 1 1 1 1 2 2 2 1 0 -2 -0 -0
2 0 2 -2 27 -25 -6 -6 -0 2 1 -3 0 -2 -10 7 -1 -3 -1 0 0 -3 3 -2 -1 -2 -3 -2 0 0 0 1 1 -1 -0 0 -0 -1 2 1 1 2 1 1 -1 0 -0 -2 -2
-1 1 7 6 12 -17 -0 -2 5 2 -7 5 -1 -6 1 1 -4 -1 -2 -0 -1 -3 2 -4 -0 -2 -2 -0 -2 -0 -1 0 -2 -2 -2 -2 1 0 3 4 -1 1 -4 1 1 1 0 0 -0
1 -2 1 -1 -9 -23 6 -1 -7 3 -1 1 -5 -1 7 0 -5 -3 -4 -5 -1 -2 0 -0 -1 -3 -3 0 -3 0 -0 -0 -2 -2 -0 1 0 4 -1 -2 -2 -2 0 3 2 1 3 2 -0
1 7 -15 -8 6 1 -1 6 -2 -1 1 -5 5 -3 -1 -5 -0 1 0 -7 -8 5 -1 0 2 -1 -5 7 -1 -2 -1 1 -2 -1 0 -2 1 4 1 -0 3 34 33 4 -7 -6 -7 -2 4
3 2 -1 -7 5 -2 -2 -3 1 -1 3 -4 7 1 -0 -1 0 -2 2 -1 -9 -11 12 -4 3 -1 -5 -6 2 -3 2 -3 3 -8 -2 2 1 -1 2 8 19 17 25 83 41 -2 10 -1 2
0 -5 -3 -2 4 1 -2 -1 -3 4 -1 -6 0 2 -1 2 2 -0 -1 1 -2 -17 -8 6 4 -1 -7 -3 -4 -3 -8 1 -1 -0 -2 4 -1 -3 6 3 6 8 46 139 37 21 12 -2 -5
-2 5 0 -2 1 -1 0 1 -3 -1 0 -2 -5 5 2 4 2 1 -1 -1 7 -15 -8 10 -1 0 -4 -2 -2 -2 -5 -1 -0 -3 -3 -2 -3 -2 6 4 12 4 -5 34 28 8 -10 -6 5
5 1 -5 0 9 -6 1 5 -0 -4 1 0 2 -8 7 5 2 7 2 -1 -0 -8 -6 7 -6 2 -0 -5 -0 1 -7 -1 -1 -0 -2 -3 3 -2 2 -5 -5 -10 -12 -6 6 8 -7 5 9
1 -4 -1 6 -2 -6 1 8 -3 -13 3 4 1 -5 -10 2 -0 8 1 2 -2 3 -6 5 -6 -1 -2 -2 -2 5 -2 -3 -5 -3 -2 -2 -4 -3 0 5 -5 -0 -7 1 -0 -6 8 1 1
-4 2 -1 5 2 -14 2 8 -10 -9 -5 3 -2 2 -10 1 -10 9 1 3 1 -6 8 2 2 -3 -1 -5 0 -3 -0 -1 -0 -4 -2 -3 -1 -1 -3 -0 -2 1 2 -2 -8 3 -10 -4 -2
5 5 3 1 -9 -4 -6 0 3 6 -0 -1 -8 1 -3 -3 -4 2 -0 -2 4 -7 11 -8 -3 -5 -0 -1 0 -1 -2 -2 0 -1 -3 -0 -3 -4 -3 -4 -4 -7 -2 -3 -5 -6 -4 6 -3
1 -8 -1 8 -3 -13 -8 -4 7 3 0 -6 -5 3 -2 -0 2 0 -2 -1 -1 -1 1 -0 -1 -3 -3 -2 0 -0 -2 -2 -1 -2 -1 -3 -3 -0 -1 1 -8 -4 -4 -6 1 4 -7 4 -2
-0 -0 5 0 9 -4 -3 -1 -5 6 2 -8 2 -1 -4 -3 9 -3 -1 -2 -3 1 0 -1 0 -3 -1 -0 -0 -2 -2 -2 -1 -3 -1 0 0 -4 -2 -3 -0 1 1 -3 -1 2 -4 -3 -3
-0 -0 1 -0 1 -13 1 -3 -2 8 -4 -6 1 -6 -1 -5 4 -0 -1 -1 -0 -3 -1 -1 -1 -1 -2 -1 0 -1 -3 -3 -2 -2 -5 0 4 -2 1 -3 -6 -5 -4 -6 -6 -4 -2 -11 5
-5 8 0 -3 4 -4 1 -24 -3 -11 -3 4 2 1 -6 0 -0 -1 -2 -1 -2 0 -1 -2 -1 -0 -1 -1 -0 0 -2 -3 -6 -3 -2 -6 -3 -2 -3 -1 2 7 -0 -0 1 -3 -7 -1 -5
10 -7 -1 -0 -1 -10 19 -27 12 2 -5 7 3 -3 0 -0 -1 -1 -1 0 0 0 0 1 1 2 4 2 -2 -1 -3 -3 -0 -2 -6 -5 -1 -3 -2 2 2 -2 -2 -5 -5 -1 -1 -0 3
3 -2 13 -3 -4 -27 14 -6 27 0 -6 -7 -1 1 -1 -7 -1 -2 0 -1 -0 -0 0 1 2 2 -0 -0 -2 -4 -5 -3 -6 -4 -5 -6 -5 1 -0 -5 -5 -5 -1 2 1 1 0 -6 -4
4 4 3 -20 -7 -17 4 -22 13 7 -2 -16 2 0 -2 -1 -2 -2 -1 -2 -1 -1 -0 -1 -0 -4 -4 -3 -4 -5 -7 -5 -1 -3 -1 -6 2 -2 -9 -4 -2 -1 -6 -3 -3 -2 -5 -0 -2
8 6 -12 -6 -11 -7 3 -16 4 -8 4 -9 -2 -1 -1 -1 -3 -2 -2 -4 -1 -2 -1 -0 -3 1 1 -0 -0 -2 -3 -7 -7 -0 -2 1 -3 -3 20 1 3 -7 -7 -6 -5 -9 1 2 3
-3 -34 50 -6 2 -18 6 6 -8 2 -5 3 4 0 -1 -1 -2 -3 -2 -3 -3 -1 0 0 -2 0 -1 -3 -1 1 -2 -3 -0 5 -8 -2 -0 -10 -2 -7 -8 -6 -9 -7 -6 -7 -2 2 -4
-11 21 -7 -5 -12 -13 8 -1 9 -8 1 -1 -3 -2 1 -1 -2 -4 -5 -5 -1 1 3 -1 -3 2 1 -4 -3 0 2 -0 -2 2 2 -3 -1 -3 -2 2 0 -5 -0 -0 -2 -7 -8 -1 -8
12 3 -21 7 -3 -14 8 -9 6 4 -3 1 2 3 -1 -0 -5 -2 -6 -2 -5 -1 4 2 1 -7 -2 2 -2 -1 -2 -0 2 -1 0 0 -3 0 -0 -1 -3 -3 -7 -5 1 -2 -12 -11 1
-14 5 4 -22 5 -9 2 5 8 0 -0 -0 4 -1 2 2 -3 -2 -5 -2 -6 -1 2 1 1 2 -1 -10 2 -5 2 -1 2 2 -1 3 2 2 0 -4 -2 -1 -3 -3 -5 -2 -3 -3 -7
Height
5912 5913 5915 5916 5921 5920 5920 5923 5922 5920 5920 5919 5919 5918 5916 5916 5915 5916 5913 5911 5913 5910 5908 5907 5905 5903 5901 5899 5897 5894 5892 5890 5887 5885 5882 5879 5877 5875 5873 5871 5869 5868 5867 5865 5864 5863 5862 5861 5859
5911 5913 5914 5916 5918 5915 5918 5921 5918 5919 5918 5918 5918 5917 5915 5916 5915 5914 5913 5912 5912 5910 5908 5906 5904 5902 5900 5898 5895 5893 5891 5888 5886 5884 5881 5879 5876 5874 5871 5870 5868 5867 5865 5864 5863 5862 5862 5860 5859
5910 5911 5914 5915 5915 5916 5913 5915 5916 5919 5917 5917 5916 5916 5914 5915 5914 5914 5912 5911 5910 5908 5906 5904 5902 5900 5898 5896 5894 5892 5889 5887 5884 5882 5879 5877 5874 5872 5870 5868 5866 5864 5863 5862 5861 5860 5859 5859 5858
5908 5911 5913 5914 5915 5914 5912 5914 5915 5916 5916 5915 5915 5912 5914 5913 5913 5912 5910 5909 5907 5906 5905 5903 5901 5898 5896 5895 5892 5889 5887 5884 5882 5879 5877 5875 5872 5870 5868 5865 5863 5862 5861 5860 5858 5858 5858 5857 5856
5906 5909 5911 5912 5914 5912 5912 5914 5914 5913 5913 5913 5913 5906 5911 5911 5911 5909 5907 5906 5905 5904 5902 5900 5899 5897 5894 5892 5889 5887 5884 5881 5878 5876 5874 5871 5869 5867 5865 5863 5861 5859 5858 5857 5856 5855 5855 5854 5853
5904 5906 5909 5911 5916 5910 5911 5912 5912 5910 5911 5910 5910 5905 5908 5908 5907 5906 5905 5903 5901 5901 5898 5898 5896 5893 5891 5889 5887 5883 5880 5877 5874 5872 5870 5867 5865 5863 5861 5859 5857 5855 5854 5854 5853 5852 5851 5850 5850
5900 5902 5905 5908 5914 5906 5906 5909 5909 5908 5906 5909 5908 5902 5905 5907 5904 5903 5901 5900 5898 5897 5896 5894 5892 5890 5888 5885 5882 5880 5876 5874 5870 5868 5866 5863 5861 5858 5857 5855 5853 5851 5849 5849 5849 5848 5848 5848 5847
5897 5899 5901 5904 5910 5899 5901 5904 5905 5904 5905 5905 5905 5902 5902 5904 5901 5900 5898 5897 5895 5893 5893 5891 5889 5886 5883 5881 5878 5875 5873 5869 5867 5864 5862 5858 5855 5854 5852 5851 5849 5847 5846 5844 5844 5844 5844 5844 5843
5893 5896 5898 5901 5903 5892 5898 5899 5902 5902 5901 5902 5902 5899 5899 5898 5897 5896 5894 5892 5892 5890 5890 5887 5885 5882 5879 5877 5874 5870 5868 5866 5864 5861 5858 5854 5851 5848 5846 5845 5843 5841 5839 5840 5839 5839 5839 5838 5837
5889 5891 5889 5890 5892 5889 5896 5895 5895 5897 5896 5897 5896 5896 5897 5894 5892 5891 5889 5887 5887 5887 5885 5884 5881 5878 5874 5871 5869 5866 5864 5863 5860 5857 5854 5851 5848 5844 5842 5839 5835 5833 5832 5832 5833 5833 5833 5833 5833
5883 5886 5882 5885 5890 5888 5889 5891 5890 5892 5891 5891 5892 5891 5891 5891 5889 5888 5885 5881 5879 5883 5881 5879 5876 5873 5868 5865 5865 5860 5859 5858 5856 5853 5850 5846 5842 5839 5837 5834 5829 5826 5823 5821 5823 5824 5824 5825 5826
5879 5879 5881 5880 5885 5884 5885 5886 5887 5888 5888 5886 5888 5887 5886 5886 5885 5883 5882 5879 5875 5871 5875 5874 5871 5866 5862 5860 5861 5856 5855 5854 5851 5848 5845 5843 5839 5836 5831 5828 5823 5823 5820 5811 5810 5813 5816 5819 5819
5872 5873 5875 5876 5880 5880 5880 5881 5881 5882 5882 5883 5881 5882 5880 5880 5879 5877 5875 5874 5871 5865 5863 5870 5864 5859 5857 5854 5854 5851 5849 5849 5847 5843 5840 5837 5835 5831 5824 5820 5819 5819 5813 5796 5806 5808 5809 5812 5813
5866 5869 5871 5871 5874 5875 5876 5877 5876 5875 5877 5877 5874 5876 5875 5874 5873 5871 5869 5867 5867 5860 5857 5862 5856 5853 5851 5849 5848 5845 5844 5843 5841 5839 5836 5834 5830 5826 5819 5814 5816 5815 5813 5802 5797 5800 5803 5806 5807
5860 5862 5864 5867 5867 5867 5870 5872 5871 5867 5872 5872 5869 5864 5868 5868 5866 5867 5866 5862 5858 5854 5851 5855 5850 5847 5846 5844 5842 5841 5838 5838 5836 5835 5832 5830 5826 5820 5817 5813 5811 5812 5807 5805 5796 5794 5796 5797 5799
5854 5856 5859 5862 5858 5862 5864 5867 5864 5857 5863 5865 5863 5860 5855 5856 5857 5857 5856 5853 5850 5847 5848 5848 5844 5841 5840 5838 5837 5836 5834 5833 5832 5829 5828 5826 5823 5819 5815 5813 5811 5811 5805 5800 5794 5790 5788 5793 5795
5849 5852 5854 5854 5853 5851 5857 5859 5857 5854 5852 5854 5855 5858 5850 5848 5845 5849 5847 5845 5843 5840 5841 5840 5837 5835 5834 5833 5832 5832 5830 5828 5827 5825 5822 5821 5818 5815 5811 5809 5807 5803 5801 5798 5795 5791 5791 5791 5788
5844 5847 5846 5848 5847 5844 5847 5850 5854 5853 5849 5842 5839 5847 5843 5842 5840 5842 5840 5838 5837 5834 5835 5831 5831 5830 5829 5828 5828 5827 5826 5823 5820 5818 5817 5817 5814 5811 5806 5804 5799 5798 5796 5793 5791 5788 5784 5783 5781
5835 5834 5837 5842 5840 5840 5836 5841 5846 5844 5842 5837 5838 5837 5835 5835 5834 5835 5833 5832 5830 5828 5827 5826 5824 5824 5824 5824 5823 5822 5820 5818 5816 5813 5811 5809 5807 5804 5802 5799 5795 5793 5791 5787 5783 5782 5780 5779 5774
5826 5828 5832 5834 5835 5834 5831 5830 5833 5836 5833 5827 5829 5827 5827 5827 5828 5827 5826 5825 5823 5822 5821 5820 5819 5819 5819 5819 5818 5816 5815 5813 5811 5808 5804 5801 5799 5796 5793 5790 5787 5785 5782 5781 5779 5775 5770 5770 5770
5818 5821 5825 5825 5823 5824 5823 5823 5824 5824 5823 5819 5821 5820 5820 5819 5821 5820 5819 5818 5817 5816 5815 5814 5814 5814 5813 5813 5812 5811 5809 5807 5805 5802 5799 5795 5792 5788 5784 5779 5778 5774 5771 5769 5767 5765 5765 5763 5762
5810 5813 5813 5813 5816 5817 5817 5807 5814 5813 5811 5812 5814 5813 5812 5813 5813 5813 5812 5812 5811 5810 5810 5809 5809 5809 5808 5807 5806 5805 5803 5800 5797 5795 5792 5789 5784 5779 5775 5772 5769 5766 5764 5763 5760 5757 5755 5753 5751
5802 5801 5804 5805 5805 5806 5806 5803 5805 5807 5801 5802 5806 5806 5806 5806 5806 5806 5805 5805 5804 5804 5804 5804 5803 5803 5802 5802 5800 5798 5795 5792 5789 5785 5782 5779 5776 5773 5768 5763 5759 5756 5754 5750 5748 5747 5744 5742 5742
5790 5792 5796 5794 5796 5790 5797 5798 5797 5796 5797 5793 5793 5800 5799 5798 5799 5798 5798 5798 5797 5798 5798 5797 5797 5796 5795 5794 5791 5788 5786 5784 5780 5776 5774 5771 5768 5764 5760 5756 5751 5747 5744 5741 5739 5737 5735 5732 5728
5780 5783 5784 5784 5783 5783 5789 5784 5786 5789 5788 5785 5783 5789 5790 5790 5790 5790 5791 5791 5791 5791 5790 5790 5789 5788 5786 5784 5782 5779 5776 5773 5770 5767 5764 5760 5759 5755 5748 5747 5743 5740 5736 5732 5729 5725 5721 5718 5717
5771 5772 5774 5773 5776 5776 5776 5771 5778 5778 5781 5779 5778 5781 5782 5782 5783 5783 5784 5784 5784 5783 5783 5782 5782 5780 5779 5776 5773 5769 5765 5762 5760 5755 5753 5750 5748 5746 5742 5736 5734 5730 5727 5723 5720 5716 5712 5709 5704
5755 5757 5770 5766 5769 5765 5764 5770 5769 5771 5772 5769 5772 5774 5774 5774 5774 5774 5776 5776 5776 5776 5775 5774 5773 5772 5769 5766 5763 5759 5756 5752 5747 5745 5739 5736 5733 5731 5730 5726 5722 5719 5716 5711 5708 5702 5698 5694 5688
5745 5749 5749 5752 5753 5756 5755 5758 5764 5761 5758 5761 5762 5766 5765 5765 5766 5767 5767 5767 5769 5768 5766 5764 5763 5762 5758 5754 5752 5749 5745 5740 5736 5732 5728 5724 5722 5716 5716 5713 5709 5706 5702 5698 5693 5688 5683 5676 5670
5733 5736 5737 5740 5742 5745 5748 5750 5754 5753 5750 5753 5753 5758 5758 5758 5758 5757 5757 5758 5758 5758 5757 5754 5751 5748 5746 5744 5741 5737 5734 5730 5725 5721 5717 5712 5708 5706 5702 5699 5696 5691 5687 5684 5678 5671 5665 5663 5656
5717 5724 5728 5723 5729 5738 5741 5743 5739 5742 5745 5745 5746 5749 5749 5750 5749 5747 5747 5748 5747 5746 5746 5743 5741 5737 5733 5732 5729 5725 5721 5716 5713 5708 5705 5701 5697 5693 5689 5686 5682 5677 5673 5668 5663 5658 5653 5648 5642